Weather History for Bar Harbor, ME

Change the Weather History Date:

Saturday, April 2, 2011

  Actual Average Record
Temperature  
Mean Temperature 37 °F -  
Max Temperature 44 °F 47 °F 63 °F (1963)
Min Temperature 30 °F 31 °F 11 °F (1964)
Degree Days  
Heating Degree Days 28    
Moisture  
Dew Point 29 °F    
Average Humidity 76    
Maximum Humidity 93    
Minimum Humidity 46    
Precipitation  
Precipitation 0.00 in - - ()
Sea Level Pressure  
Sea Level Pressure 29.14 in    
Wind  
Wind Speed 9 mph (WNW)    
Max Wind Speed 15 mph    
Max Gust Speed 24 mph    
Visibility 9 miles    
Events      
Averages and records for this station are not official NWS values.
T = Trace of Precipitation, MM = Missing Value Source: NWS Daily Summary

Daily Weather History Graph

Daily Weather History Graph

Search for Another Location

Airport:

Trip Planner

Search our weather history database for the weather conditions in past years. The results will help you decide how hot, cold, wet, or windy it might be!

Date:

Astronomy

Apr. 02, 2011 Rise Set
Actual Time 6:13 AM EDT 7:01 PM EDT
Civil Twilight 5:43 AM EDT 7:31 PM EDT
Nautical Twilight 5:08 AM EDT 8:06 PM EDT
Astronomical Twilight 4:32 AM EDT 8:42 PM EDT
Moon 5:23 AM EDT (4/2) 6:27 PM EDT (4/2)
Length of Visible Light 13h 47m
Length of Day
12h 48m
Waning Crescent, 1% of the Moon is Illuminated
Apr 2
Waning Crescent
Apr 3
New
Apr 11
First Quarter
Apr 17
Full
Apr 24
Last Quarter

Hourly Weather History & Observations

Time (EDT) Temp. Windchill Dew Point Humidity Pressure Visibility Wind Dir Wind Speed Gust Speed Precip Events Conditions
12:15 AM 32.0 °F 23.6 °F 30.2 °F 93% 29.00 in 10.0 mi NW 10.4 mph 17.3 mph N/A   Overcast
12:35 AM 32.0 °F 24.8 °F 28.4 °F 87% 29.00 in 10.0 mi NW 8.1 mph 17.3 mph N/A   Overcast
12:55 AM 32.0 °F 23.6 °F 30.2 °F 93% 29.01 in 10.0 mi NW 10.4 mph 19.6 mph N/A   Overcast
1:15 AM 32.0 °F 23.0 °F 28.4 °F 87% 29.02 in 10.0 mi NW 11.5 mph 18.4 mph N/A   Overcast
1:35 AM 32.0 °F 23.6 °F 28.4 °F 87% 29.02 in 10.0 mi NW 10.4 mph 21.9 mph N/A   Overcast
1:55 AM 32.0 °F 23.6 °F 28.4 °F 87% 29.02 in 10.0 mi NW 10.4 mph 20.7 mph N/A   Overcast
2:15 AM 30.2 °F 20.2 °F 28.4 °F 93% 29.02 in 5.0 mi NW 12.7 mph 24.2 mph N/A   Overcast
2:35 AM 30.2 °F 21.3 °F 28.4 °F 93% 29.03 in 8.0 mi NW 10.4 mph 18.4 mph N/A   Overcast
2:55 AM 30.2 °F 23.4 °F 28.4 °F 93% 29.03 in 4.0 mi WNW 6.9 mph - N/A   Overcast
3:15 AM 30.2 °F 23.4 °F 28.4 °F 93% 29.03 in 8.0 mi WNW 6.9 mph - N/A   Overcast
3:35 AM 30.2 °F 23.4 °F 28.4 °F 93% 29.03 in 9.0 mi NW 6.9 mph - N/A   Overcast
3:55 AM 30.2 °F 23.4 °F 28.4 °F 93% 29.04 in 10.0 mi WNW 6.9 mph - N/A   Overcast
4:15 AM 30.2 °F 23.4 °F 28.4 °F 93% 29.04 in 7.0 mi West 6.9 mph - N/A   Overcast
4:35 AM 30.2 °F 23.4 °F 28.4 °F 93% 29.05 in 8.0 mi West 6.9 mph - N/A   Overcast
4:55 AM 30.2 °F 22.6 °F 28.4 °F 93% 29.06 in 5.0 mi West 8.1 mph - N/A   Overcast
5:15 AM 30.2 °F 22.6 °F 28.4 °F 93% 29.06 in 5.0 mi WNW 8.1 mph - N/A   Mostly Cloudy
5:35 AM 30.2 °F 21.9 °F 28.4 °F 93% 29.07 in 10.0 mi West 9.2 mph - N/A   Overcast
5:55 AM 30.2 °F 23.4 °F 26.6 °F 86% 29.08 in 6.0 mi WNW 6.9 mph 16.1 mph N/A   Overcast
6:15 AM 30.2 °F 23.4 °F 28.4 °F 93% 29.09 in 5.0 mi WNW 6.9 mph - N/A   Overcast
6:35 AM 30.2 °F 20.8 °F 28.4 °F 93% 29.10 in 5.0 mi West 11.5 mph 17.3 mph N/A   Overcast
6:55 AM 30.2 °F 21.3 °F 28.4 °F 93% 29.11 in 3.0 mi West 10.4 mph 16.1 mph N/A   Mostly Cloudy
7:15 AM 30.2 °F 22.6 °F 28.4 °F 93% 29.11 in 7.0 mi WNW 8.1 mph - N/A   Overcast
7:35 AM 32.0 °F 23.6 °F 28.4 °F 87% 29.12 in 10.0 mi West 10.4 mph - N/A   Mostly Cloudy
7:55 AM 32.0 °F 23.0 °F 28.4 °F 87% 29.13 in 10.0 mi WNW 11.5 mph - N/A   Clear
8:15 AM 33.8 °F 27.0 °F 28.4 °F 81% 29.13 in 10.0 mi WNW 8.1 mph 17.3 mph N/A   Clear
8:35 AM 33.8 °F 27.0 °F 28.4 °F 81% 29.13 in 10.0 mi WNW 8.1 mph - N/A   Clear
8:55 AM 33.8 °F 26.4 °F 28.4 °F 81% 29.13 in 10.0 mi WNW 9.2 mph 20.7 mph N/A   Clear
9:15 AM 33.8 °F 26.4 °F 28.4 °F 81% 29.15 in 10.0 mi WNW 9.2 mph 17.3 mph N/A   Partly Cloudy
9:35 AM 33.8 °F 25.3 °F 28.4 °F 81% 29.15 in 10.0 mi WNW 11.5 mph 21.9 mph N/A   Partly Cloudy
9:55 AM 35.6 °F 27.5 °F 28.4 °F 75% 29.16 in 10.0 mi WNW 11.5 mph 18.4 mph N/A   Partly Cloudy
10:15 AM 35.6 °F 27.5 °F 28.4 °F 75% 29.16 in 10.0 mi WNW 11.5 mph 17.3 mph N/A   Scattered Clouds
10:35 AM 35.6 °F 26.2 °F 28.4 °F 75% 29.17 in 10.0 mi WNW 15.0 mph 20.7 mph N/A   Partly Cloudy
10:55 AM 35.6 °F 28.0 °F 28.4 °F 75% 29.17 in 10.0 mi WNW 10.4 mph 19.6 mph N/A   Partly Cloudy
11:15 AM 35.6 °F 28.6 °F 30.2 °F 81% 29.17 in 10.0 mi WNW 9.2 mph 17.3 mph N/A   Scattered Clouds
11:35 AM 37.4 °F 30.3 °F 30.2 °F 75% 29.17 in 10.0 mi WNW 10.4 mph - N/A   Mostly Cloudy
11:55 AM 37.4 °F 31.4 °F 30.2 °F 75% 29.17 in 10.0 mi WNW 8.1 mph 21.9 mph N/A   Mostly Cloudy
12:15 PM 39.2 °F 32.5 °F 30.2 °F 70% 29.18 in 10.0 mi West 10.4 mph 18.4 mph N/A   Mostly Cloudy
12:35 PM 39.2 °F 32.5 °F 30.2 °F 70% 29.18 in 10.0 mi WNW 10.4 mph 19.6 mph N/A   Mostly Cloudy
12:55 PM 39.2 °F 32.0 °F 30.2 °F 70% 29.19 in 10.0 mi WNW 11.5 mph 21.9 mph N/A   Overcast
1:15 PM 39.2 °F 34.2 °F 30.2 °F 70% 29.19 in 10.0 mi WNW 6.9 mph - N/A   Overcast
1:35 PM 39.2 °F 35.0 °F 30.2 °F 70% 29.19 in 10.0 mi West 5.8 mph - N/A   Overcast
1:55 PM 41.0 °F 37.1 °F 30.2 °F 65% 29.19 in 10.0 mi West 5.8 mph - N/A   Overcast
2:15 PM 41.0 °F 36.4 °F 30.2 °F 65% 29.20 in 10.0 mi West 6.9 mph - N/A   Overcast
2:35 PM 41.0 °F 38.0 °F 32.0 °F 70% 29.20 in 10.0 mi WSW 4.6 mph - N/A   Overcast
2:55 PM 42.8 °F 37.0 °F 30.2 °F 61% 29.20 in 10.0 mi West 10.4 mph 19.6 mph N/A   Overcast
3:15 PM 42.8 °F 36.6 °F 30.2 °F 61% 29.21 in 10.0 mi West 11.5 mph 23.0 mph N/A   Overcast
3:35 PM 44.6 °F 40.2 °F 28.4 °F 53% 29.22 in 10.0 mi West 8.1 mph 23.0 mph N/A   Mostly Cloudy
3:55 PM 44.6 °F 38.4 °F 28.4 °F 53% 29.22 in 10.0 mi WNW 12.7 mph 21.9 mph N/A   Overcast
4:15 PM 44.6 °F 38.4 °F 28.4 °F 53% 29.23 in 10.0 mi WNW 12.7 mph 18.4 mph N/A   Mostly Cloudy
4:35 PM 44.6 °F 39.7 °F 26.6 °F 49% 29.23 in 10.0 mi NW 9.2 mph 18.4 mph N/A   Scattered Clouds
4:55 PM 44.6 °F 41.4 °F 26.6 °F 49% 29.24 in 10.0 mi NW 5.8 mph - N/A   Mostly Cloudy
5:15 PM 44.6 °F 39.7 °F 24.8 °F 46% 29.25 in 10.0 mi NW 9.2 mph - N/A   Scattered Clouds
5:35 PM 44.6 °F 38.8 °F 26.6 °F 49% 29.25 in 10.0 mi West 11.5 mph - N/A   Mostly Cloudy
5:55 PM 44.6 °F 40.2 °F 26.6 °F 49% 29.27 in 10.0 mi WNW 8.1 mph - N/A   Overcast
6:15 PM 44.6 °F 41.4 °F 26.6 °F 49% 29.28 in 10.0 mi West 5.8 mph - N/A   Overcast
6:35 PM 42.8 °F 37.5 °F 28.4 °F 57% 29.29 in 10.0 mi WNW 9.2 mph 18.4 mph N/A   Mostly Cloudy
6:55 PM 42.8 °F 38.0 °F 28.4 °F 57% 29.30 in 10.0 mi West 8.1 mph - N/A   Scattered Clouds
7:15 PM 42.8 °F 39.3 °F 28.4 °F 57% 29.30 in 10.0 mi West 5.8 mph - N/A   Mostly Cloudy
7:35 PM 42.8 °F 39.3 °F 28.4 °F 57% 29.31 in 10.0 mi WSW 5.8 mph - N/A   Mostly Cloudy
7:55 PM 41.0 °F 39.0 °F 28.4 °F 61% 29.32 in 10.0 mi West 3.5 mph - N/A   Partly Cloudy
8:15 PM 39.2 °F 35.0 °F 28.4 °F 65% 29.33 in 10.0 mi WSW 5.8 mph - N/A   Partly Cloudy
8:35 PM 39.2 °F 35.0 °F 28.4 °F 65% 29.33 in 10.0 mi WSW 5.8 mph - N/A   Partly Cloudy
8:55 PM 39.2 °F 35.9 °F 28.4 °F 65% 29.34 in 10.0 mi West 4.6 mph - N/A   Clear
9:15 PM 39.2 °F 35.0 °F 28.4 °F 65% 29.35 in 10.0 mi WSW 5.8 mph - N/A   Clear
9:35 PM 39.2 °F 35.0 °F 28.4 °F 65% 29.35 in 10.0 mi WSW 5.8 mph - N/A   Partly Cloudy
9:55 PM 39.2 °F 34.2 °F 28.4 °F 65% 29.35 in 10.0 mi WSW 6.9 mph - N/A   Scattered Clouds
10:15 PM 39.2 °F 34.2 °F 28.4 °F 65% 29.36 in 10.0 mi WSW 6.9 mph - N/A   Overcast
10:35 PM 39.2 °F 35.0 °F 28.4 °F 65% 29.36 in 10.0 mi WSW 5.8 mph - N/A   Scattered Clouds
10:55 PM 39.2 °F 35.0 °F 28.4 °F 65% 29.36 in 10.0 mi West 5.8 mph - N/A   Clear
11:15 PM 37.4 °F 32.1 °F 28.4 °F 70% 29.36 in 10.0 mi West 6.9 mph - N/A   Clear
11:35 PM 37.4 °F 33.8 °F 28.4 °F 70% 29.37 in 10.0 mi West 4.6 mph - N/A   Clear
11:55 PM 37.4 °F 33.8 °F 28.4 °F 70% 29.37 in 10.0 mi West 4.6 mph - N/A   Clear